[[{"header":{"parameterUnit":"m.s-1","parameterCategory":1,"la1":30.2991,"la2":30.254,"lo1":-89.0895,"lo2":-89.0444,"dy":0.0017,"dx":0.0017,"nx":28,"ny":28,"refTime":"2023-09-27T21:00:00:Z","depth":0,"parameterNumber":2,"parameterNumberName":"U-component_of_WINDS"},"data":[0,0,0,0,0,0,0,0,0,0,0,0,0,0,0,0,0,0,0,0,0,0,0,0,0,0,0,0,0,0,0,0,0,0,0,0,0,0,0,0,0,0,0,0,0,0,0,0,0,0,0,0,0,0,0,0,0,0,-4.4372,-4.4372,0,-4.4421,-4.4421,-4.4422,-4.4341,-4.4338,-4.4336,-4.4333,-4.4384,-4.4388,-4.4391,0,0,0,0,0,0,0,0,0,0,0,0,0,-4.4209,-4.4212,-4.4372,-4.4372,-4.4373,-4.4421,-4.4421,-4.4422,-4.4342,-4.4338,-4.4335,-4.4332,-4.4382,-4.4387,-4.4392,0,0,0,0,0,0,0,0,0,0,0,0,0,-4.4271,-4.4213,-4.4371,-4.4338,-4.4336,-4.442,-4.4421,-4.4422,-4.4342,-4.4338,-4.4334,-4.433,-4.4381,-4.4387,-4.4392,-4.4512,0,0,-4.441,-4.4413,0,0,0,0,0,0,0,0,-4.4268,-4.4277,-4.4343,-4.4341,-4.4338,-4.4371,-4.4382,-4.4452,-4.4343,-4.434,-4.4333,-4.4328,-4.4383,-4.4388,-4.4407,-4.4514,-4.4516,-4.4411,-4.4415,-4.4417,-4.4419,0,0,0,0,0,0,0,-4.4263,-4.4274,-4.4391,-4.4344,-4.4341,-4.4321,-4.4326,-4.4395,-4.4384,-4.434,-4.4334,-4.4341,-4.4381,-4.4401,-4.4407,-4.4517,-4.4411,-4.4416,-4.442,-4.4422,-4.4726,-4.473,0,0,0,0,0,0,-4.4263,-4.4271,-4.4389,-4.4392,-4.4292,-4.4328,-4.4332,-4.4364,-4.4383,-4.4382,-4.4345,-4.4337,-4.4393,-4.44,-4.4409,-4.455,-4.4417,-4.4423,-4.4426,-4.4721,-4.4727,-4.4732,0,0,0,0,0,0,-4.426,-4.4274,-4.4387,-4.433,-4.4343,-4.4335,-4.4371,-4.4368,-4.4388,-4.4386,-4.4384,-4.4367,-4.439,-4.44,-4.4487,-4.4551,-4.4425,-4.443,-4.4716,-4.4723,-4.4729,-4.4834,0,0,0,0,0,0,-4.4255,-4.4274,-4.4319,-4.4332,-4.4347,-4.4465,-4.4375,-4.4371,-4.4398,-4.4389,-4.4407,-4.4406,-4.4388,-4.4478,-4.4493,-4.4557,-4.4435,-4.471,-4.4719,-4.4727,-4.4825,-4.4843,-4.4859,0,0,0,0,0,-4.425,-4.4346,-4.4321,-4.4336,-4.4403,-4.4469,-4.4477,-4.4453,-4.4403,-4.4449,-4.4448,-4.4406,-4.4541,-4.4488,-4.4503,-4.457,-4.4706,-4.4716,-4.4726,-4.4817,-4.484,-4.4859,0,0,0,0,0,0,-4.434,-4.4347,-4.432,-4.4423,-4.4446,-4.4455,-4.4511,-4.4478,-4.4516,-4.4506,-4.4475,-4.448,-4.4573,-4.458,-4.452,-4.4687,-4.4615,-4.4629,-4.4679,-4.4701,-4.4718,-4.4714,-4.444,0,0,0,0,0,-4.4371,-4.4424,-4.4428,-4.4518,-4.4531,-4.452,-4.4547,-4.4527,-4.455,-4.4559,-4.4565,-4.4589,-4.4637,-4.4669,-4.4713,-4.4825,-4.4829,-4.4879,-4.4896,-4.491,-4.4923,-4.4984,-4.5007,-4.4765,-4.4765,-4.4765,0,0,-4.4438,-4.4448,-4.4483,-4.4537,-4.4552,-4.4608,-4.4528,-4.459,-4.4632,-4.4569,-4.4651,-4.4656,-4.4681,-4.4781,-4.4825,-4.479,-4.499,-4.4923,-4.4935,-4.4939,-4.4997,-4.502,-4.504,-4.4772,-4.4771,-4.477,0,0,-4.4587,-4.46,-4.4677,-4.4695,-4.4719,-4.4711,-4.473,-4.4744,-4.4746,-4.4828,-4.4782,-4.4831,-4.4914,-4.4933,-4.4954,-4.5113,-4.5076,-4.5128,-4.5219,-4.5279,-4.5298,-4.5315,-4.5373,-4.5393,-4.514,-4.5141,-4.5141,0,-4.4666,-4.4748,-4.4721,-4.4787,-4.4812,-4.4758,-4.4837,-4.4855,-4.4893,-4.4912,-4.4871,-4.4975,-4.4988,-4.5093,-4.5131,-4.515,-4.5171,-4.5126,-4.5298,-4.5314,-4.5329,-4.5384,-4.5406,-4.5147,-4.5146,-4.5146,-4.5145,0,-4.4845,-4.4903,-4.4962,-4.5001,-4.5033,-4.5105,-4.5089,-4.5125,-4.5102,-4.5099,-4.5184,-4.5197,-4.5243,-4.5267,-4.5245,-4.5369,-4.5346,-4.5302,-4.523,-4.5359,-4.541,-4.5431,-4.5156,-4.5154,-4.5152,-4.515,0,0,-4.5051,-4.5075,-4.5097,-4.5115,-4.5139,-4.5183,-4.5253,-4.5298,-4.533,-4.5358,-4.5417,-4.5489,-4.5449,-4.5473,-4.5453,-4.5506,-4.5632,-4.5455,-4.5455,-4.5488,-4.5771,-4.5804,-4.5829,-4.5607,-4.5611,-4.5614,-4.5769,0,-4.5201,-4.5321,-4.53,-4.5417,-4.5471,-4.5421,-4.5482,-4.5504,-4.5503,-4.5548,-4.5547,-4.5599,-4.5541,-4.5556,-4.5605,-4.5606,-4.5688,-4.5594,-4.5662,-4.5665,-4.5658,-4.5855,-4.5891,-4.6036,-4.5789,-4.5792,-4.5794,0,-4.5391,-4.5427,-4.555,-4.5567,-4.5588,-4.5644,-4.5684,-4.5728,-4.5752,-4.5748,-4.5776,-4.5746,-4.5817,-4.5744,-4.5841,-4.5778,-4.5804,-4.5809,-4.5814,-4.582,-4.5738,-4.5867,-4.6082,-4.6104,-4.5825,-4.5823,-4.5821,0,-4.553,-4.561,-4.5694,-4.571,-4.5731,-4.5772,-4.5782,-4.5802,-4.5831,-4.5867,-4.5886,-4.5929,-4.5953,-4.5988,-4.5972,-4.592,-4.6073,-4.5998,-4.6072,-4.6073,-4.6107,-4.6105,-4.6329,-4.6123,-4.6122,-4.6122,-4.6122,0,-4.57,-4.5777,-4.5757,-4.5809,-4.5895,-4.587,-4.5955,-4.596,-4.5978,-4.6031,-4.599,-4.604,-4.6015,-4.6064,-4.6052,-4.6135,-4.6146,-4.6145,-4.6141,-4.6149,-4.6149,-4.6166,-4.6156,-4.6128,-4.6127,-4.6125,-4.6124,0,-4.587,-4.586,-4.5949,-4.5962,-4.5967,-4.603,-4.6041,-4.609,-4.6086,-4.6153,-4.6167,-4.6161,-4.6216,-4.6204,-4.6264,-4.6256,-4.6361,-4.6344,-4.6353,-4.6349,-4.6424,-4.6418,-4.6668,-4.67,-4.6473,-4.6475,-4.6476,0,-4.5979,-4.6038,-4.6058,-4.609,-4.6104,-4.6157,-4.6187,-4.6164,-4.6197,-4.6229,-4.6275,-4.6327,-4.6367,-4.6458,-4.6459,-4.6505,-4.649,-4.6574,-4.6496,-4.6503,-4.6492,-4.6489,-4.6496,-4.659,-4.6592,-4.6595,-4.6596,0,-4.6174,-4.6167,-4.6211,-4.6255,-4.6292,-4.6325,-4.6354,-4.6383,-4.6363,-4.6402,-4.6459,-4.649,-4.6552,-4.6604,-4.6648,-4.6659,-4.6625,-4.6621,-4.6641,-4.665,-4.6653,-4.6654,-4.6396,-4.6615,-4.6613,-4.6612,-4.6611,-4.661,-4.6318,-4.6368,-4.6391,-4.6442,-4.6462,-4.6491,-4.6538,-4.654,-4.6587,-4.6635,-4.6619,-4.6684,-4.6708,-4.6762,-4.6779,-4.6829,-4.6798,-4.6826,-4.6833,-4.6841,-4.6851,-4.6645,-4.6837,-4.6836,-4.6836,-4.6835,-4.6835,0,-4.6512,-4.6524,-4.6572,-4.6614,-4.6655,-4.662,-4.6651,-4.6688,-4.6745,-4.677,-4.681,-4.6876,-4.6927,-4.6932,-4.6981,-4.702,-4.7006,-4.7034,-4.7031,-4.7034,-4.6876,-4.6854,-4.7044,-4.7044,-4.7044,-4.7044,-4.7044,-4.7044,-4.6618,-4.6701,-4.6697,-4.679,-4.6802,-4.6865,-4.6886,-4.6912,-4.6932,-4.7007,-4.7049,-4.7052,-4.707,-4.7119,-4.7165,-4.7165,-4.7186,-4.722,-4.7214,-4.7066,-4.7045,-4.7025,-4.7005,-4.7224,-4.7224,-4.7369,-4.737,-4.7371]},{"header":{"parameterUnit":"m.s-1","parameterCategory":1,"la1":30.2991,"la2":30.254,"lo1":-89.0895,"lo2":-89.0444,"dy":0.0017,"dx":0.0017,"nx":28,"ny":28,"refTime":"2023-09-27T21:00:00:Z","depth":0,"parameterNumber":3,"parameterNumberName":"V-component_of_WINDS"},"data":[0,0,0,0,0,0,0,0,0,0,0,0,0,0,0,0,0,0,0,0,0,0,0,0,0,0,0,0,0,0,0,0,0,0,0,0,0,0,0,0,0,0,0,0,0,0,0,0,0,0,0,0,0,0,0,0,0,0,-2.3187,-2.3187,0,-2.3169,-2.3169,-2.3169,-2.312,-2.3119,-2.3118,-2.3117,-2.3099,-2.31,-2.31,0,0,0,0,0,0,0,0,0,0,0,0,0,-2.3179,-2.3179,-2.3187,-2.3187,-2.3187,-2.3169,-2.3169,-2.3169,-2.312,-2.3119,-2.3117,-2.3116,-2.3099,-2.31,-2.31,0,0,0,0,0,0,0,0,0,0,0,0,0,-2.3174,-2.3179,-2.3187,-2.316,-2.3158,-2.3169,-2.3169,-2.3169,-2.312,-2.3119,-2.3117,-2.3116,-2.3099,-2.31,-2.31,-2.3137,0,0,-2.3103,-2.3103,0,0,0,0,0,0,0,0,-2.3174,-2.3174,-2.3164,-2.3162,-2.3159,-2.3145,-2.3159,-2.3158,-2.3121,-2.3135,-2.3117,-2.3115,-2.3116,-2.3115,-2.3115,-2.3136,-2.3135,-2.3103,-2.3103,-2.3104,-2.3104,0,0,0,0,0,0,0,-2.3175,-2.3175,-2.318,-2.3164,-2.3161,-2.3149,-2.3146,-2.3159,-2.3134,-2.3133,-2.313,-2.3128,-2.3114,-2.3115,-2.3115,-2.3135,-2.3103,-2.3104,-2.3104,-2.3104,-2.3183,-2.3184,0,0,0,0,0,0,-2.3179,-2.3175,-2.3181,-2.318,-2.3163,-2.315,-2.3148,-2.3151,-2.3134,-2.313,-2.3129,-2.3126,-2.3114,-2.3114,-2.3114,-2.3154,-2.3104,-2.3104,-2.3105,-2.3181,-2.3183,-2.3185,0,0,0,0,0,0,-2.3179,-2.318,-2.3181,-2.3176,-2.3176,-2.3152,-2.3157,-2.3152,-2.3152,-2.3131,-2.3127,-2.3135,-2.3113,-2.3113,-2.3131,-2.3153,-2.3105,-2.3105,-2.3179,-2.3182,-2.3184,-2.3235,0,0,0,0,0,0,-2.3179,-2.318,-2.3194,-2.3177,-2.3176,-2.3199,-2.3158,-2.3153,-2.3154,-2.3149,-2.3135,-2.3131,-2.3112,-2.313,-2.3132,-2.3153,-2.3106,-2.3177,-2.318,-2.3183,-2.3232,-2.3239,-2.3246,0,0,0,0,0,-2.3179,-2.321,-2.3195,-2.3196,-2.3193,-2.3201,-2.32,-2.3177,-2.3156,-2.3169,-2.3155,-2.3131,-2.315,-2.3132,-2.3134,-2.3155,-2.3176,-2.3179,-2.3183,-2.3228,-2.3238,-2.3246,0,0,0,0,0,0,-2.3231,-2.3207,-2.319,-2.3217,-2.3211,-2.3192,-2.3209,-2.3188,-2.3188,-2.3184,-2.3155,-2.3152,-2.3174,-2.3167,-2.3147,-2.3189,-2.3159,-2.3163,-2.3193,-2.3202,-2.3208,-2.321,-2.3107,0,0,0,0,0,-2.3245,-2.3253,-2.3232,-2.3258,-2.3256,-2.3233,-2.3235,-2.3218,-2.3211,-2.3208,-2.3196,-2.319,-2.3194,-2.3197,-2.32,-2.323,-2.3226,-2.3246,-2.3253,-2.3259,-2.3262,-2.3276,-2.3284,-2.3197,-2.3197,-2.3197,0,0,-2.3276,-2.3264,-2.3271,-2.3268,-2.3261,-2.327,-2.3231,-2.3242,-2.3248,-2.321,-2.3226,-2.3217,-2.3208,-2.3232,-2.3242,-2.3226,-2.3285,-2.3263,-2.3268,-2.3269,-2.328,-2.3289,-2.3296,-2.3199,-2.3199,-2.3198,0,0,-2.3335,-2.3327,-2.3346,-2.334,-2.333,-2.3314,-2.3319,-2.3303,-2.3295,-2.3311,-2.3281,-2.3288,-2.3296,-2.3291,-2.3289,-2.3344,-2.3322,-2.3346,-2.3383,-2.3396,-2.3403,-2.3409,-2.3427,-2.3434,-2.335,-2.335,-2.335,0,-2.3374,-2.3385,-2.3359,-2.3372,-2.3371,-2.3336,-2.3354,-2.335,-2.3342,-2.3342,-2.3324,-2.3332,-2.3324,-2.3345,-2.3359,-2.3359,-2.3363,-2.3347,-2.3404,-2.341,-2.3415,-2.3432,-2.3439,-2.3353,-2.3352,-2.3352,-2.3352,0,-2.3433,-2.3441,-2.3458,-2.345,-2.3451,-2.3467,-2.3443,-2.3447,-2.3429,-2.3415,-2.343,-2.3419,-2.3418,-2.3422,-2.3405,-2.344,-2.343,-2.3409,-2.3378,-2.3426,-2.3442,-2.3448,-2.3357,-2.3356,-2.3355,-2.3354,0,0,-2.3525,-2.3501,-2.3508,-2.3502,-2.3488,-2.3494,-2.3508,-2.3506,-2.3509,-2.3505,-2.3515,-2.3522,-2.3501,-2.3499,-2.3481,-2.3493,-2.3535,-2.347,-2.3469,-2.3481,-2.3571,-2.3587,-2.3595,-2.352,-2.3521,-2.3522,-2.3572,0,-2.358,-2.3602,-2.3578,-2.3604,-2.3611,-2.3576,-2.3588,-2.358,-2.3567,-2.3571,-2.3556,-2.3561,-2.3534,-2.3532,-2.3543,-2.3528,-2.3553,-2.3524,-2.3528,-2.3529,-2.3531,-2.3603,-2.362,-2.3667,-2.3578,-2.3579,-2.3579,0,-2.3647,-2.3644,-2.3671,-2.3653,-2.3655,-2.3666,-2.3661,-2.3665,-2.3655,-2.3644,-2.3641,-2.3619,-2.363,-2.3601,-2.3615,-2.3596,-2.3596,-2.3589,-2.359,-2.3589,-2.3557,-2.3603,-2.3682,-2.3688,-2.3589,-2.3588,-2.3587,0,-2.371,-2.3713,-2.3729,-2.3726,-2.3705,-2.3713,-2.3705,-2.3693,-2.3693,-2.369,-2.3689,-2.3687,-2.3686,-2.3684,-2.3662,-2.3642,-2.3678,-2.3647,-2.3669,-2.367,-2.3678,-2.3678,-2.3757,-2.368,-2.368,-2.368,-2.368,0,-2.3773,-2.3791,-2.3756,-2.3766,-2.3784,-2.3756,-2.3775,-2.3763,-2.3753,-2.3759,-2.3729,-2.3736,-2.3706,-2.3709,-2.3692,-2.3705,-2.3706,-2.3697,-2.3692,-2.3699,-2.37,-2.3698,-2.3694,-2.3682,-2.3681,-2.3681,-2.3681,0,-2.3847,-2.3825,-2.3839,-2.3818,-2.3813,-2.3827,-2.3809,-2.3817,-2.3801,-2.3809,-2.381,-2.3785,-2.3787,-2.3764,-2.3763,-2.3751,-2.3772,-2.3762,-2.3775,-2.3772,-2.3794,-2.3792,-2.3874,-2.3883,-2.3802,-2.3803,-2.3804,0,-2.3888,-2.39,-2.388,-2.3882,-2.3875,-2.3879,-2.3878,-2.385,-2.3851,-2.3839,-2.3848,-2.3847,-2.3845,-2.385,-2.3832,-2.383,-2.3818,-2.3847,-2.3818,-2.3824,-2.3817,-2.3816,-2.3817,-2.3853,-2.3854,-2.3855,-2.3856,0,-2.3963,-2.3951,-2.3951,-2.3947,-2.3946,-2.3942,-2.3935,-2.3939,-2.3909,-2.391,-2.3911,-2.391,-2.3907,-2.3906,-2.39,-2.3891,-2.3868,-2.3865,-2.387,-2.3877,-2.3884,-2.3879,-2.3791,-2.3864,-2.3863,-2.3862,-2.3862,-2.3862,-2.4021,-2.4029,-2.4016,-2.4016,-2.4008,-2.4002,-2.4008,-2.3992,-2.3993,-2.3988,-2.3971,-2.3975,-2.3963,-2.3952,-2.3945,-2.3947,-2.3933,-2.3941,-2.3942,-2.3944,-2.3947,-2.3884,-2.3946,-2.3946,-2.3946,-2.3946,-2.3946,0,-2.4093,-2.4082,-2.4083,-2.4074,-2.4074,-2.4052,-2.4043,-2.4044,-2.4048,-2.4038,-2.4036,-2.4037,-2.4035,-2.4017,-2.4013,-2.4018,-2.4007,-2.4018,-2.4017,-2.4015,-2.3961,-2.3957,-2.4027,-2.4027,-2.4027,-2.4027,-2.4027,-2.4027,-2.4131,-2.4144,-2.413,-2.4137,-2.4126,-2.4129,-2.4126,-2.412,-2.4112,-2.4113,-2.4112,-2.4099,-2.4086,-2.408,-2.4078,-2.4072,-2.4072,-2.4086,-2.4077,-2.4027,-2.4019,-2.4011,-2.4007,-2.4086,-2.4086,-2.413,-2.413,-2.413]}]]